Temp
80 80 80 81 80 80 80 80 80 81 81 80 80 80 80 80 79 78 78 77 77 76 77 77 77 77 77 77 77 78 78 78 77 77 77 76 77 76 75 76 76 75 76 76 76 76 77 78 78 78 78 78 78 78 77 78 78 78 78 78 78 77 77
79 80 81 81 80 80 80 80 80 81 81 81 81 80 81 80 79 78 78 78 77 77 77 77 77 77 77 77 78 78 77 77 78 78 77 76 76 76 77 76 76 75 75 76 77 77 77 78 78 78 77 78 78 78 78 78 78 78 78 77 77 77 77
79 80 81 81 81 81 80 81 81 82 82 82 82 81 81 79 79 79 78 78 77 77 78 77 77 77 77 77 77 77 78 78 78 78 77 77 77 78 77 77 76 76 77 77 77 77 78 77 77 78 78 77 78 78 78 78 78 78 78 77 77 77 76
79 80 81 81 82 81 81 81 81 82 83 83 83 82 81 80 81 80 80 79 78 77 77 77 78 78 78 77 77 77 77 77 78 78 78 78 78 77 76 76 76 77 76 76 78 78 78 78 77 77 78 78 77 78 78 78 78 78 78 77 77 77 77
79 81 81 81 81 81 81 81 81 81 83 84 84 82 82 82 82 81 80 80 80 78 79 79 80 79 78 78 78 78 78 77 78 78 79 78 78 77 77 77 77 77 77 77 77 77 77 77 77 77 77 77 78 77 77 78 78 78 77 77 77 77 77
79 79 80 81 82 82 82 82 83 83 83 83 83 83 83 83 83 82 81 80 80 80 80 79 79 78 78 78 79 78 78 78 78 78 78 78 77 77 77 77 77 77 77 77 78 77 77 77 77 77 77 78 78 78 78 78 78 78 78 77 77 77 77
80 80 80 81 82 83 82 83 84 84 84 85 85 84 84 83 82 82 82 81 81 79 79 79 79 79 78 78 78 78 77 78 78 78 78 78 78 77 77 78 78 78 78 77 77 78 77 77 77 77 78 78 78 78 78 77 77 78 78 77 77 77 77
80 80 81 82 83 84 84 83 84 84 84 84 84 84 83 83 83 82 82 82 81 81 80 80 79 79 78 78 78 78 78 78 78 78 78 78 78 77 78 78 77 78 77 77 77 78 78 78 78 78 78 78 78 78 78 78 77 78 78 77 77 77 77
82 82 82 83 83 84 85 84 84 83 83 82 83 83 83 83 83 82 82 82 82 81 81 81 80 80 79 78 78 78 78 78 78 78 78 78 78 78 79 78 78 78 77 78 78 78 78 78 78 78 78 78 78 77 78 78 78 78 78 77 77 77 77
80 80 81 83 84 85 84 84 83 81 81 81 81 81 81 82 82 82 82 82 82 81 81 81 81 81 79 78 78 79 78 78 78 79 79 78 79 78 79 79 79 78 78 79 79 78 78 79 78 78 77 77 77 77 78 78 78 78 78 78 77 77 77
81 80 80 81 82 82 82 82 80 79 80 79 80 82 81 81 82 82 82 82 82 82 82 82 81 81 80 79 79 79 78 78 79 78 78 78 79 79 80 80 80 79 79 79 79 79 78 78 78 78 77 77 77 77 77 78 78 78 78 78 78 78 78
79 79 79 80 80 81 80 80 80 79 79 79 81 82 80 80 82 82 82 82 83 82 82 82 82 81 80 80 79 78 78 78 78 78 78 78 79 79 80 80 80 80 80 80 79 79 79 78 78 78 77 78 78 78 78 78 78 78 78 79 79 78 78
79 79 79 80 80 81 79 78 78 79 79 81 82 82 82 82 82 82 81 81 83 83 82 81 81 80 79 80 79 78 78 78 78 78 79 78 79 80 80 80 81 81 80 80 80 80 79 79 78 78 79 78 79 79 78 78 78 78 78 78 78 78 78
78 79 80 80 80 78 78 78 78 78 79 80 81 82 82 82 82 82 81 81 82 83 83 82 81 79 78 79 78 77 78 78 79 78 78 79 78 79 80 80 80 80 80 80 79 80 80 80 79 79 79 79 79 79 79 78 78 78 78 78 78 79 78
75 78 79 79 78 78 78 78 77 78 79 80 81 81 81 81 81 81 81 82 81 83 82 81 80 79 79 78 77 77 78 78 79 79 79 79 78 78 78 79 79 79 79 79 80 80 81 81 81 79 79 79 79 79 79 79 78 79 79 78 78 79 79
76 78 78 79 78 79 78 79 78 78 79 79 80 80 81 80 80 81 81 81 82 81 82 80 79 78 78 78 78 78 78 78 78 78 78 78 77 77 78 79 79 79 79 79 79 79 79 79 80 80 80 79 79 79 79 79 79 75 70 72 79 79 79
76 77 78 79 78 79 79 79 78 78 78 78 79 80 80 80 81 82 83 82 81 80 81 81 79 79 79 78 79 78 78 77 77 78 77 77 78 77 77 77 78 78 77 78 78 78 78 79 79 80 80 80 79 79 79 79 79 70 66 66 68 77 79
75 76 77 78 78 79 78 78 77 77 78 80 80 80 81 80 81 81 81 81 81 82 82 81 80 79 78 79 78 78 77 78 77 77 77 77 77 77 77 78 77 77 77 78 78 77 79 79 78 79 80 80 80 80 80 79 72 67 65 65 65 68 78
75 76 77 77 77 78 79 79 79 79 80 81 81 81 83 82 82 80 81 81 81 82 82 81 81 79 78 79 78 78 78 78 77 77 77 77 77 77 77 77 77 77 77 78 78 78 77 77 78 78 79 79 79 79 80 80 71 66 65 65 64 64 70
72 76 78 79 79 79 79 79 80 81 81 81 82 84 84 83 83 82 82 82 81 81 80 80 80 79 79 78 78 78 78 78 78 77 77 77 77 77 77 77 77 78 79 79 78 77 77 78 78 78 77 78 78 78 80 80 72 65 63 63 63 63 66
69 73 74 76 76 79 78 78 79 79 79 81 82 82 83 82 82 80 80 81 80 81 79 80 79 78 78 78 78 78 78 78 78 77 77 78 77 77 77 77 77 78 78 79 78 77 77 77 77 78 78 79 79 79 80 81 69 64 62 61 61 62 64
70 73 74 75 76 76 76 78 78 80 79 81 81 82 83 82 82 81 80 81 81 81 80 80 79 79 79 78 79 79 79 78 78 78 78 78 77 77 77 77 77 77 78 78 79 79 79 78 79 78 78 79 79 79 79 81 68 63 62 60 60 61 69
69 73 74 73 76 75 75 77 77 78 78 79 81 82 83 83 82 81 80 80 81 80 80 79 78 79 79 79 79 79 79 79 78 78 78 78 77 77 77 77 77 77 78 78 78 79 78 78 79 79 79 79 79 78 78 80 71 63 61 60 59 61 72
71 71 73 74 73 74 74 75 76 78 79 78 79 81 81 82 81 79 78 79 79 80 79 80 79 79 79 79 80 79 79 79 79 78 78 78 77 78 78 79 79 79 79 78 78 79 80 80 79 79 79 79 79 80 79 80 73 62 60 59 58 64 73
71 71 71 73 75 75 75 76 77 78 78 78 78 78 80 81 80 79 78 79 81 81 80 80 80 80 80 80 80 80 80 80 80 79 79 78 78 79 78 78 78 79 79 80 79 79 79 80 79 79 79 81 81 75 78 80 76 63 60 58 57 64 74
70 71 72 73 74 75 75 76 77 77 78 78 78 78 81 81 80 79 79 80 81 80 80 80 81 81 82 81 81 81 81 81 80 80 80 79 79 79 79 80 80 80 79 79 80 80 80 80 80 79 79 81 81 81 80 80 81 75 59 58 56 59 73
72 72 72 73 74 76 74 75 76 76 77 77 76 79 81 81 80 79 79 78 79 79 81 82 81 81 81 81 82 82 82 82 81 81 81 81 80 80 80 81 80 80 79 79 80 79 79 79 79 80 79 81 81 81 81 81 81 78 61 57 56 56 63
71 72 74 74 75 74 73 73 73 73 73 74 76 78 79 79 78 77 77 77 78 79 81 81 81 81 81 81 81 82 82 82 82 82 82 81 80 79 79 80 81 80 80 80 79 77 77 78 78 78 79 80 80 80 80 80 75 83 65 58 56 55 56
69 69 70 71 71 74 74 72 72 72 72 74 76 77 77 78 76 76 76 76 76 75 76 79 80 80 80 80 81 81 82 82 81 81 82 81 81 80 79 79 80 80 79 78 78 77 77 77 77 77 78 78 78 79 79 80 78 69 75 59 55 54 54
69 69 70 72 72 72 73 71 71 71 72 73 74 75 77 77 75 75 75 74 75 75 75 76 77 79 80 80 80 81 81 82 82 82 82 81 81 80 79 79 79 79 78 78 78 77 76 76 77 77 77 77 77 78 79 79 80 71 67 68 56 55 53
68 68 68 69 70 71 71 71 70 70 70 71 72 74 75 76 76 75 74 74 75 75 75 75 75 76 78 79 80 80 82 82 82 81 82 82 81 80 79 79 79 78 78 78 77 77 76 76 77 76 76 76 77 77 77 79 79 81 71 65 60 55 54
67 68 69 69 69 71 70 70 71 71 70 70 71 72 73 74 75 74 73 74 75 75 75 74 74 74 76 77 78 79 80 81 82 82 82 81 82 81 80 80 79 78 78 78 78 77 76 76 76 76 76 76 77 77 78 78 78 78 77 70 67 61 55
65 66 66 66 69 70 69 69 69 69 70 69 69 71 71 71 72 72 73 73 73 74 74 73 73 74 75 75 76 77 78 79 80 80 81 81 81 81 81 81 80 79 77 78 78 77 77 77 76 76 76 76 76 77 77 77 77 77 75 74 73 73 67
63 64 66 66 68 69 68 68 68 68 68 68 68 69 70 71 71 71 72 73 73 73 74 74 73 74 74 74 75 75 76 77 79 79 79 80 81 81 81 80 80 79 78 78 77 78 77 78 77 76 77 76 77 77 77 76 76 75 75 73 73 73 71
63 63 65 65 66 68 67 67 67 67 68 67 68 69 69 69 70 71 71 72 73 73 75 75 75 74 73 73 74 74 76 76 77 78 78 73 64 58 58 64 73 77 78 75 77 80 80 78 77 78 78 79 77 76 75 76 74 75 67 75 65 71 72
62 63 64 66 67 67 67 68 68 67 68 67 67 68 69 69 69 70 71 72 72 73 73 73 73 73 72 72 73 74 75 75 76 76 73 69 65 62 58 52 46 49 66 70 59 54 58 63 78 79 79 79 77 75 78 77 78 63 57 56 55 55 57
61 62 63 64 65 65 66 67 68 68 68 67 68 68 68 69 69 70 70 70 71 72 72 72 72 72 72 72 73 74 75 75 74 72 69 68 67 67 64 63 58 46 43 48 51 49 48 52 54 56 65 77 74 58 51 58 51 50 51 50 50 50 49
62 62 63 64 64 64 65 66 67 66 67 67 67 68 68 69 69 69 70 70 70 71 71 71 72 72 71 72 72 74 74 74 72 69 68 68 69 69 68 67 66 64 49 43 46 46 42 40 47 55 57 61 62 61 61 51 47 46 45 45 45 45 44
MSLP
1004.06 1004.50 1004.74 1004.82 1005.34 1005.54 1005.70 1005.98 1006.34 1006.78 1007.10 1007.54 1007.90 1008.30 1008.78 1009.14 1009.50 1009.94 1010.42 1010.82 1011.30 1011.82 1012.02 1012.34 1012.70 1013.02 1013.42 1013.62 1013.82 1014.06 1014.34 1014.74 1015.02 1015.38 1015.66 1015.90 1016.06 1016.38 1016.78 1016.98 1017.26 1017.50 1017.66 1017.94 1017.94 1018.02 1017.94 1018.06 1018.26 1018.38 1018.58 1018.70 1018.82 1018.98 1019.14 1019.30 1019.50 1019.62 1019.78 1019.90 1020.10 1020.30 1020.42
1004.46 1004.54 1004.54 1004.70 1005.02 1005.10 1005.14 1005.46 1005.94 1006.34 1006.70 1006.98 1007.38 1007.78 1008.14 1008.62 1008.98 1009.46 1009.82 1010.22 1010.66 1011.10 1011.58 1011.98 1012.38 1012.70 1012.94 1013.22 1013.42 1013.78 1014.22 1014.42 1014.66 1014.90 1015.22 1015.62 1015.82 1016.02 1016.18 1016.58 1016.82 1017.10 1017.26 1017.34 1017.54 1017.70 1017.86 1017.94 1018.06 1018.26 1018.46 1018.58 1018.70 1018.74 1018.94 1019.14 1019.30 1019.46 1019.66 1019.78 1020.06 1020.22 1020.30
1003.46 1003.62 1003.94 1004.18 1004.38 1004.50 1004.70 1005.10 1005.42 1005.58 1005.90 1006.30 1006.74 1007.22 1007.54 1007.90 1008.26 1008.74 1009.34 1009.90 1010.42 1010.78 1011.10 1011.54 1011.90 1012.30 1012.58 1012.90 1013.30 1013.58 1013.82 1014.14 1014.46 1014.74 1015.10 1015.30 1015.50 1015.66 1015.90 1016.18 1016.50 1016.74 1016.86 1017.02 1017.22 1017.46 1017.54 1017.82 1017.90 1018.02 1018.22 1018.46 1018.54 1018.66 1018.78 1018.98 1019.14 1019.26 1019.42 1019.58 1019.82 1020.06 1020.18
1002.74 1002.94 1002.98 1002.94 1003.02 1003.22 1003.78 1004.26 1004.54 1004.90 1005.26 1005.50 1005.82 1006.26 1006.90 1007.42 1007.70 1008.18 1008.58 1009.10 1009.82 1010.42 1010.98 1011.22 1011.50 1011.90 1012.22 1012.66 1013.06 1013.34 1013.62 1013.86 1014.06 1014.34 1014.58 1014.78 1015.14 1015.38 1015.82 1016.06 1016.30 1016.50 1016.82 1016.86 1016.86 1017.06 1017.26 1017.50 1017.78 1017.90 1018.02 1018.26 1018.42 1018.50 1018.62 1018.74 1018.90 1019.06 1019.22 1019.42 1019.66 1019.74 1019.90
1002.02 1002.02 1002.42 1002.86 1003.06 1003.38 1003.90 1004.22 1004.58 1004.82 1004.82 1004.86 1005.30 1005.74 1006.14 1006.74 1007.34 1007.90 1008.34 1008.62 1009.02 1009.66 1010.02 1010.54 1011.02 1011.46 1011.82 1012.18 1012.58 1012.90 1013.22 1013.54 1013.86 1014.06 1014.26 1014.46 1014.78 1015.14 1015.54 1015.82 1016.02 1016.22 1016.30 1016.54 1016.74 1016.94 1017.14 1017.38 1017.54 1017.74 1017.90 1018.02 1018.22 1018.34 1018.50 1018.54 1018.70 1018.82 1019.02 1019.18 1019.50 1019.58 1019.74
1001.94 1002.18 1002.30 1002.30 1002.42 1002.70 1003.06 1003.30 1003.50 1003.78 1004.14 1004.62 1004.94 1005.42 1005.90 1006.50 1007.06 1007.62 1007.90 1008.38 1008.82 1009.18 1009.62 1010.14 1010.62 1010.98 1011.54 1011.86 1012.26 1012.66 1012.94 1013.18 1013.38 1013.66 1013.94 1014.22 1014.58 1014.98 1015.18 1015.34 1015.62 1015.90 1016.22 1016.34 1016.46 1016.66 1016.82 1017.06 1017.26 1017.46 1017.70 1017.82 1017.98 1018.18 1018.30 1018.46 1018.50 1018.62 1018.78 1019.02 1019.18 1019.34 1019.54
1001.14 1001.38 1001.58 1001.58 1001.70 1001.98 1002.26 1002.54 1002.82 1003.14 1003.46 1003.90 1004.50 1005.18 1005.78 1006.22 1006.62 1006.98 1007.50 1008.06 1008.38 1009.02 1009.46 1009.90 1010.18 1010.62 1011.06 1011.46 1011.90 1012.30 1012.70 1012.94 1013.22 1013.50 1013.66 1014.02 1014.26 1014.58 1014.78 1014.98 1015.22 1015.50 1015.66 1016.02 1016.38 1016.42 1016.70 1016.86 1016.94 1017.10 1017.30 1017.50 1017.74 1017.94 1018.10 1018.26 1018.38 1018.42 1018.62 1018.86 1019.02 1019.06 1019.18
1000.30 1000.82 1000.70 1000.66 1000.90 1001.14 1001.50 1001.82 1002.14 1002.58 1003.10 1003.70 1004.46 1005.02 1005.42 1005.58 1006.18 1006.78 1007.22 1007.46 1007.94 1008.46 1008.94 1009.38 1009.90 1010.30 1010.66 1011.02 1011.38 1011.82 1012.18 1012.50 1012.74 1013.06 1013.42 1013.78 1014.06 1014.34 1014.50 1014.74 1014.94 1015.10 1015.50 1015.86 1015.90 1016.10 1016.34 1016.50 1016.62 1016.78 1016.98 1017.22 1017.42 1017.58 1017.74 1017.90 1018.06 1018.22 1018.42 1018.66 1018.82 1018.94 1018.94
999.38 999.46 999.78 1000.02 1000.30 1000.54 1000.78 1001.18 1001.62 1002.22 1002.78 1003.22 1003.54 1003.98 1004.50 1005.22 1005.74 1006.18 1006.66 1007.14 1007.58 1008.02 1008.38 1008.66 1009.14 1009.54 1010.10 1010.66 1011.14 1011.54 1011.78 1012.14 1012.50 1012.82 1013.22 1013.54 1013.78 1014.02 1014.18 1014.42 1014.62 1014.82 1015.22 1015.42 1015.62 1015.74 1015.94 1016.14 1016.34 1016.50 1016.70 1016.94 1017.06 1017.26 1017.50 1017.62 1017.78 1017.90 1018.14 1018.34 1018.50 1018.70 1018.78
999.46 999.70 999.66 999.66 999.78 999.98 1000.30 1000.74 1001.50 1002.34 1003.02 1003.38 1003.70 1004.18 1004.54 1004.74 1005.14 1005.66 1006.14 1006.54 1007.06 1007.62 1007.90 1008.34 1008.74 1009.22 1009.82 1010.30 1010.74 1011.10 1011.54 1011.94 1012.18 1012.58 1012.90 1013.30 1013.42 1013.70 1013.86 1014.06 1014.34 1014.50 1014.78 1014.98 1015.22 1015.54 1015.66 1015.78 1016.02 1016.26 1016.50 1016.70 1016.82 1016.98 1017.14 1017.30 1017.46 1017.62 1017.74 1017.94 1018.14 1018.34 1018.50
998.94 999.06 999.34 999.58 999.78 999.98 1000.38 1001.18 1001.86 1002.14 1002.34 1002.70 1003.06 1003.30 1003.70 1004.26 1004.78 1005.18 1005.62 1006.06 1006.54 1006.94 1007.34 1007.86 1008.26 1008.90 1009.46 1009.98 1010.54 1010.90 1011.30 1011.66 1011.94 1012.34 1012.66 1012.94 1013.10 1013.34 1013.50 1013.74 1013.98 1014.22 1014.46 1014.70 1015.02 1015.14 1015.42 1015.66 1015.74 1016.06 1016.26 1016.46 1016.50 1016.66 1016.78 1016.90 1017.06 1017.34 1017.46 1017.54 1017.66 1017.90 1018.06
998.78 998.86 999.10 999.22 999.42 999.90 1000.54 1000.66 1000.82 1001.30 1001.78 1002.18 1002.46 1002.82 1003.30 1003.74 1004.18 1004.62 1005.10 1005.50 1005.82 1006.58 1007.14 1007.54 1007.90 1008.46 1009.14 1009.62 1010.22 1010.66 1011.02 1011.34 1011.66 1011.98 1012.26 1012.50 1012.70 1012.94 1013.14 1013.38 1013.66 1013.90 1014.10 1014.30 1014.66 1014.86 1015.06 1015.34 1015.58 1015.70 1015.90 1015.94 1016.02 1016.18 1016.34 1016.50 1016.70 1016.90 1017.10 1017.26 1017.38 1017.54 1017.66
998.70 998.70 998.70 998.82 999.02 999.26 999.66 1000.38 1000.74 1000.78 1001.06 1001.42 1001.78 1002.26 1002.74 1003.26 1003.78 1004.22 1004.74 1005.26 1005.54 1005.94 1006.54 1007.06 1007.58 1008.18 1008.78 1009.26 1009.74 1010.30 1010.62 1010.90 1011.18 1011.38 1011.74 1011.98 1012.22 1012.42 1012.70 1012.98 1013.18 1013.46 1013.78 1013.90 1014.18 1014.54 1014.78 1014.94 1015.22 1015.30 1015.42 1015.50 1015.66 1015.86 1015.98 1016.18 1016.34 1016.54 1016.70 1016.90 1017.06 1017.22 1017.38
998.46 998.42 998.26 998.30 998.70 999.22 999.74 999.86 1000.06 1000.46 1000.78 1001.18 1001.58 1001.94 1002.46 1002.82 1003.18 1003.66 1004.22 1004.82 1005.18 1005.66 1006.26 1006.74 1007.30 1007.86 1008.38 1008.86 1009.38 1009.78 1010.06 1010.26 1010.42 1010.74 1011.06 1011.34 1011.70 1011.98 1012.22 1012.50 1012.78 1013.02 1013.22 1013.50 1013.90 1014.06 1014.26 1014.54 1014.82 1014.90 1015.02 1015.10 1015.30 1015.38 1015.58 1015.86 1016.06 1016.14 1016.30 1016.46 1016.62 1016.82 1016.98
998.62 998.34 998.18 998.38 998.50 998.74 999.02 999.46 999.82 1000.10 1000.46 1000.78 1001.18 1001.78 1002.22 1002.66 1003.14 1003.58 1004.10 1004.50 1004.86 1005.22 1005.70 1006.10 1006.82 1007.46 1007.90 1008.42 1008.90 1009.14 1009.34 1009.66 1009.98 1010.26 1010.66 1011.02 1011.46 1011.82 1012.06 1012.22 1012.42 1012.62 1012.86 1013.14 1013.38 1013.50 1013.70 1013.94 1014.26 1014.62 1014.82 1014.86 1014.98 1015.10 1015.26 1015.50 1015.58 1015.62 1015.82 1016.10 1016.26 1016.34 1016.62
997.86 997.78 997.78 997.86 997.98 998.14 998.34 998.58 999.02 999.46 999.86 1000.46 1000.94 1001.38 1001.90 1002.38 1002.78 1003.14 1003.58 1004.02 1004.38 1004.82 1005.14 1005.74 1006.46 1007.02 1007.58 1008.06 1008.26 1008.50 1008.90 1009.30 1009.66 1010.06 1010.42 1010.86 1011.22 1011.46 1011.66 1011.90 1012.10 1012.34 1012.62 1012.82 1012.94 1013.18 1013.42 1013.70 1013.90 1014.14 1014.42 1014.66 1014.74 1014.82 1014.98 1015.06 1014.98 1014.98 1015.22 1015.46 1015.70 1016.02 1016.22
997.14 997.06 997.06 997.22 997.42 997.58 997.74 998.14 998.58 999.22 999.78 1000.18 1000.50 1000.82 1001.18 1001.58 1001.94 1002.42 1002.98 1003.50 1003.98 1004.46 1004.74 1005.22 1006.02 1006.58 1007.06 1007.46 1007.74 1008.22 1008.66 1009.14 1009.50 1009.82 1010.26 1010.42 1010.74 1011.02 1011.34 1011.58 1011.82 1012.10 1012.30 1012.46 1012.66 1012.90 1013.14 1013.38 1013.66 1013.82 1013.90 1014.14 1014.34 1014.58 1014.62 1014.54 1014.42 1014.54 1014.94 1015.14 1015.34 1015.54 1015.86
996.78 996.66 996.70 996.90 997.06 997.26 997.62 998.02 998.58 999.10 999.46 999.70 999.98 1000.38 1000.78 1001.30 1001.74 1002.26 1002.74 1003.02 1003.50 1003.86 1004.30 1004.98 1005.62 1006.22 1006.66 1006.98 1007.54 1007.98 1008.42 1008.74 1009.14 1009.54 1009.82 1010.14 1010.42 1010.62 1010.90 1011.22 1011.54 1011.78 1011.94 1012.18 1012.42 1012.58 1012.74 1013.06 1013.18 1013.34 1013.54 1013.70 1013.86 1014.06 1014.10 1014.06 1013.94 1014.26 1014.54 1014.78 1015.02 1015.22 1015.38
996.42 996.26 996.22 996.38 996.74 996.98 997.22 997.58 997.86 998.14 998.46 998.90 999.34 999.82 999.98 1000.38 1001.18 1001.70 1001.90 1002.50 1002.86 1003.46 1004.18 1004.70 1005.18 1005.78 1006.38 1006.74 1007.14 1007.54 1007.90 1008.30 1008.78 1009.10 1009.42 1009.66 1009.90 1010.18 1010.58 1010.90 1011.18 1011.42 1011.66 1011.82 1011.82 1012.10 1012.42 1012.54 1012.78 1012.98 1013.06 1013.26 1013.50 1013.58 1013.50 1013.54 1013.50 1013.86 1014.10 1014.34 1014.62 1014.90 1015.18
996.34 996.34 996.10 995.98 995.98 996.26 996.50 996.86 997.22 997.42 997.66 997.98 998.26 998.54 999.02 999.66 1000.26 1000.86 1001.42 1002.14 1002.82 1003.38 1003.90 1004.46 1004.98 1005.42 1005.90 1006.30 1006.70 1007.06 1007.46 1007.86 1008.30 1008.70 1008.90 1009.14 1009.46 1009.78 1010.14 1010.46 1010.70 1010.78 1010.90 1011.14 1011.46 1011.74 1011.94 1012.10 1012.30 1012.42 1012.62 1012.74 1012.94 1013.06 1013.02 1013.06 1013.02 1013.38 1013.62 1013.90 1014.18 1014.50 1014.90
996.02 995.86 996.18 996.34 996.46 996.38 996.46 996.54 996.82 997.30 997.90 998.26 998.54 999.02 999.58 1000.22 1000.70 1001.30 1001.82 1002.18 1002.82 1003.18 1003.78 1004.18 1004.66 1005.18 1005.58 1005.98 1006.30 1006.70 1007.06 1007.46 1007.78 1008.18 1008.50 1008.74 1009.10 1009.46 1009.74 1010.02 1010.22 1010.42 1010.50 1010.74 1010.98 1011.30 1011.50 1011.58 1011.86 1011.94 1012.02 1012.18 1012.34 1012.62 1012.70 1012.46 1012.54 1012.90 1013.14 1013.42 1013.74 1014.10 1014.54
995.38 995.54 995.82 995.94 996.14 996.26 996.46 996.66 996.90 997.14 997.42 997.62 998.34 998.82 999.14 999.82 1000.18 1000.86 1001.50 1001.70 1002.42 1002.98 1003.42 1003.90 1004.46 1004.86 1005.22 1005.66 1005.94 1006.22 1006.50 1006.98 1007.42 1007.78 1008.06 1008.42 1008.78 1009.18 1009.46 1009.58 1009.74 1009.98 1010.06 1010.30 1010.42 1010.54 1010.74 1010.98 1011.14 1011.42 1011.54 1011.62 1011.94 1012.22 1012.26 1011.94 1012.14 1012.42 1012.70 1012.98 1013.34 1013.82 1014.22
996.46 995.26 995.30 995.70 995.82 996.22 996.18 996.26 996.70 997.10 997.54 997.98 998.26 998.70 999.18 999.58 1000.06 1000.70 1001.42 1002.02 1002.38 1002.82 1003.34 1003.78 1004.30 1004.58 1004.82 1005.18 1005.46 1005.78 1006.10 1006.46 1006.90 1007.30 1007.62 1007.98 1008.42 1008.78 1008.98 1009.18 1009.34 1009.50 1009.54 1010.02 1010.10 1010.30 1010.42 1010.54 1010.66 1010.70 1010.98 1011.22 1011.42 1011.66 1011.62 1011.66 1011.66 1011.94 1012.18 1012.50 1012.94 1013.58 1013.78
996.62 996.06 995.38 995.34 995.70 995.98 996.30 996.50 996.78 997.02 997.42 998.02 998.38 998.66 999.02 999.42 1000.02 1000.66 1001.34 1001.86 1002.26 1002.74 1003.26 1003.62 1003.90 1004.02 1004.38 1004.70 1004.90 1005.18 1005.54 1005.90 1006.30 1006.78 1007.14 1007.58 1008.02 1008.22 1008.26 1008.34 1008.46 1008.78 1008.90 1009.42 1009.70 1009.86 1009.82 1009.94 1010.18 1010.26 1010.38 1010.66 1010.82 1010.90 1011.22 1011.22 1011.18 1011.42 1011.66 1012.06 1012.54 1012.82 1013.18
997.14 996.50 996.14 995.66 995.46 996.02 996.30 996.46 996.58 997.02 997.46 997.98 998.70 998.78 998.86 999.34 999.94 1000.70 1001.34 1001.70 1002.06 1002.42 1002.94 1003.22 1003.34 1003.58 1003.90 1004.10 1004.26 1004.62 1004.98 1005.34 1005.74 1006.18 1006.62 1007.10 1007.30 1007.42 1007.74 1007.90 1008.02 1008.02 1008.30 1008.66 1008.94 1009.14 1009.26 1009.46 1009.74 1009.90 1009.98 1010.02 1010.22 1010.34 1010.66 1010.66 1010.70 1010.86 1011.18 1011.62 1012.02 1012.42 1012.50
997.74 997.10 996.66 996.26 996.06 995.90 996.18 996.42 996.78 997.34 997.70 998.02 998.26 998.34 998.66 999.14 999.82 1000.46 1001.02 1001.42 1001.70 1002.30 1002.58 1002.62 1002.58 1002.62 1002.90 1003.34 1003.78 1004.10 1004.50 1004.82 1005.30 1005.62 1006.06 1006.42 1006.62 1006.82 1007.02 1007.10 1007.46 1007.82 1008.14 1008.34 1008.54 1008.78 1008.90 1009.10 1009.34 1009.62 1009.66 1009.58 1009.78 1009.90 1010.02 1010.22 1010.18 1010.30 1010.70 1011.10 1011.50 1011.78 1011.94
998.06 997.50 997.26 997.06 996.90 996.54 996.70 996.86 996.94 997.34 997.50 997.62 997.90 998.14 998.38 998.82 999.58 1000.30 1000.70 1001.18 1001.70 1001.98 1001.82 1001.70 1001.98 1002.42 1002.78 1003.06 1003.46 1003.82 1004.14 1004.38 1004.74 1005.18 1005.46 1005.62 1005.94 1006.10 1006.38 1006.70 1007.06 1007.30 1007.70 1008.02 1008.14 1008.42 1008.66 1008.90 1009.02 1009.18 1009.26 1009.22 1009.26 1009.38 1009.42 1009.46 1009.74 1009.82 1010.18 1010.58 1010.94 1011.26 1011.58
998.66 998.02 997.58 997.38 997.34 997.34 997.50 997.66 997.86 997.98 998.06 998.06 997.98 998.06 998.30 998.78 999.58 1000.18 1000.66 1001.14 1001.42 1001.30 1001.22 1001.54 1001.82 1002.06 1002.46 1002.86 1003.14 1003.42 1003.70 1003.98 1004.22 1004.54 1004.90 1005.14 1005.54 1006.14 1006.42 1006.34 1006.46 1006.78 1007.14 1007.42 1007.82 1008.22 1008.46 1008.58 1008.78 1008.94 1008.98 1008.94 1008.90 1008.98 1009.02 1008.94 1009.18 1009.38 1009.70 1010.06 1010.42 1010.78 1011.06
999.74 999.46 999.06 998.66 998.42 998.22 998.06 998.34 998.50 998.62 998.58 998.38 998.22 998.26 998.46 998.90 999.78 1000.30 1000.58 1001.06 1001.10 1001.02 1001.10 1001.30 1001.58 1001.94 1002.22 1002.54 1002.82 1003.06 1003.30 1003.58 1003.90 1004.26 1004.46 1004.82 1005.10 1005.58 1005.94 1005.98 1006.30 1006.50 1006.74 1007.18 1007.54 1007.90 1008.22 1008.34 1008.54 1008.78 1008.90 1008.86 1008.74 1008.66 1008.66 1008.62 1008.74 1008.94 1009.18 1009.46 1009.86 1010.18 1010.58
1000.30 999.98 999.66 999.30 999.10 999.10 998.82 998.98 998.98 998.98 998.94 998.78 998.66 998.66 998.78 999.10 1000.02 1000.38 1000.74 1001.10 1000.90 1000.86 1000.94 1001.14 1001.42 1001.66 1002.10 1002.38 1002.58 1002.78 1002.98 1003.22 1003.46 1003.70 1003.94 1004.26 1004.62 1005.06 1005.46 1005.78 1005.98 1006.18 1006.46 1006.74 1007.14 1007.58 1007.94 1008.10 1008.22 1008.54 1008.74 1008.86 1008.78 1008.54 1008.38 1008.26 1008.30 1008.42 1008.62 1008.90 1009.30 1009.62 1009.90
1001.38 1001.06 1000.70 1000.38 1000.02 999.66 999.54 999.70 999.78 999.54 999.46 999.34 999.26 999.18 999.26 999.30 999.90 1000.50 1000.94 1001.02 1000.78 1000.86 1000.94 1001.14 1001.38 1001.62 1001.86 1002.02 1002.22 1002.42 1002.54 1002.78 1003.02 1003.22 1003.46 1003.70 1004.06 1004.74 1005.06 1005.42 1005.62 1006.14 1006.18 1006.50 1006.86 1007.18 1007.58 1007.70 1007.90 1008.22 1008.34 1008.46 1008.50 1008.38 1008.22 1008.06 1008.02 1008.06 1008.22 1008.42 1008.74 1009.14 1009.50
1001.90 1001.50 1001.10 1000.70 1000.50 1000.26 1000.26 1000.14 1000.06 1000.02 1000.14 1000.10 999.90 999.82 999.74 999.78 999.78 1000.38 1000.90 1000.70 1000.74 1000.70 1000.82 1000.98 1001.26 1001.70 1001.86 1001.90 1001.98 1002.06 1002.18 1002.62 1002.70 1002.82 1002.98 1003.26 1003.50 1003.86 1004.14 1004.62 1005.02 1005.50 1005.74 1006.06 1006.34 1006.66 1007.02 1007.30 1007.50 1007.74 1007.90 1008.10 1008.06 1008.10 1007.94 1007.82 1007.90 1007.94 1007.98 1008.22 1008.46 1008.86 1009.14
1002.98 1002.54 1002.14 1001.74 1001.30 1000.94 1000.82 1000.74 1000.78 1000.78 1000.66 1000.70 1000.54 1000.42 1000.38 1000.34 1000.42 1000.58 1000.42 1000.46 1000.62 1000.70 1000.74 1000.98 1001.18 1001.46 1001.70 1001.90 1001.90 1001.94 1002.10 1002.38 1002.58 1002.74 1002.90 1003.10 1003.26 1003.50 1003.78 1004.06 1004.46 1004.86 1005.30 1005.58 1005.94 1006.34 1006.58 1006.86 1007.18 1007.42 1007.62 1007.78 1007.82 1007.70 1007.62 1007.66 1007.74 1007.82 1007.90 1007.94 1008.18 1008.38 1008.70
1003.62 1003.06 1002.46 1002.10 1001.74 1001.50 1001.46 1001.46 1001.46 1001.38 1001.30 1001.26 1001.06 1000.90 1000.86 1000.86 1000.86 1000.78 1000.66 1000.30 1000.38 1000.62 1000.78 1000.98 1001.18 1001.46 1001.66 1001.78 1001.90 1002.06 1002.14 1002.26 1002.34 1002.62 1002.86 1002.98 1003.14 1003.46 1003.70 1003.90 1004.06 1004.46 1004.82 1005.10 1005.42 1005.86 1006.26 1006.42 1006.70 1006.94 1007.06 1007.30 1007.22 1007.30 1007.42 1007.58 1007.54 1007.62 1007.66 1007.74 1007.74 1007.94 1008.22
1003.98 1003.54 1002.98 1002.62 1002.34 1002.14 1002.14 1002.02 1001.90 1001.82 1001.62 1001.62 1001.34 1001.14 1001.06 1001.10 1001.02 1000.82 1000.42 1000.22 1000.34 1000.50 1000.70 1001.06 1001.26 1001.46 1001.54 1001.78 1001.98 1002.14 1002.06 1002.14 1002.26 1002.42 1002.70 1003.10 1003.58 1004.14 1004.46 1004.34 1004.02 1004.14 1004.26 1004.26 1004.26 1004.62 1005.18 1005.70 1005.90 1005.98 1006.06 1006.26 1006.66 1007.06 1007.38 1007.34 1007.58 1007.02 1006.50 1006.70 1006.94 1007.26 1007.74
1004.26 1003.70 1003.22 1002.86 1002.58 1002.42 1002.22 1002.06 1001.90 1001.82 1001.78 1001.70 1001.50 1001.30 1001.26 1001.22 1001.10 1000.86 1000.62 1000.54 1000.50 1000.46 1000.70 1000.94 1001.06 1001.26 1001.58 1001.74 1001.94 1002.06 1002.10 1002.18 1002.22 1002.30 1002.66 1003.22 1003.78 1004.18 1004.94 1005.82 1005.66 1005.18 1004.62 1004.54 1004.82 1004.86 1004.70 1004.74 1005.10 1005.10 1005.34 1005.78 1005.86 1006.02 1006.46 1006.70 1006.18 1006.14 1006.58 1006.70 1006.94 1007.10 1007.14
1004.62 1004.02 1003.58 1003.26 1002.98 1002.70 1002.54 1002.30 1002.02 1001.82 1001.78 1001.74 1001.54 1001.42 1001.38 1001.26 1001.14 1001.02 1000.94 1000.78 1000.62 1000.50 1000.62 1000.70 1001.02 1001.22 1001.42 1001.66 1001.86 1001.94 1002.02 1002.14 1002.30 1002.54 1002.94 1003.42 1003.78 1004.14 1004.46 1004.90 1005.30 1005.58 1005.62 1005.38 1005.26 1005.10 1005.02 1004.98 1004.90 1004.82 1004.74 1005.02 1005.70 1006.14 1006.02 1005.78 1005.90 1006.10 1006.26 1006.58 1006.82 1007.06 1007.34
1004.50 1004.50 1003.94 1003.50 1003.38 1003.18 1002.82 1002.46 1002.30 1002.14 1001.90 1001.66 1001.46 1001.38 1001.34 1001.26 1001.18 1001.18 1001.14 1001.06 1000.86 1000.66 1000.66 1000.70 1000.78 1001.18 1001.38 1001.46 1001.70 1001.90 1002.02 1002.18 1002.50 1002.82 1003.18 1003.54 1003.70 1003.98 1004.30 1004.54 1004.90 1005.38 1005.74 1005.70 1005.34 1005.22 1005.18 1005.10 1004.94 1004.74 1004.66 1004.66 1004.90 1005.42 1006.06 1006.30 1006.26 1006.30 1006.62 1006.86 1007.14 1007.34 1007.62
Wind_Speed
17 16 16 16 16 17 18 18 18 18 18 17 17 18 18 17 17 16 16 17 18 17 16 16 16 14 16 15 15 13 12 11 10 11 10 9 9 9 9 8 9 8 7 8 8 8 8 6 8 7 7 7 6 6 6 6 6 5 5 5 5 5 5
13 14 16 15 15 17 18 17 16 16 16 17 16 18 17 18 17 17 17 17 18 19 17 16 16 15 15 15 13 13 13 13 12 10 9 8 7 8 8 9 9 9 9 8 7 6 6 7 7 7 7 6 7 6 6 6 6 6 5 6 5 5 5
16 17 16 16 17 16 17 16 16 18 18 17 17 17 18 18 18 19 17 17 18 17 16 17 17 16 15 14 13 14 13 12 12 12 12 11 12 11 9 8 8 8 8 7 7 7 6 7 7 7 7 7 6 7 6 6 6 6 6 6 5 5 6
16 18 19 20 21 19 18 18 19 18 17 18 19 20 19 19 18 17 17 18 19 17 18 17 16 16 15 15 14 13 14 13 13 12 13 11 11 9 8 8 7 6 7 9 8 7 6 7 7 7 8 8 7 6 6 7 6 6 6 6 5 6 5
16 18 16 16 18 16 14 15 15 16 19 19 18 18 19 18 17 16 16 17 19 20 19 18 15 14 13 14 12 11 13 14 12 12 11 10 9 9 9 10 9 9 9 7 7 7 8 8 7 7 7 8 7 6 7 6 6 6 6 6 5 7 7
14 15 16 17 17 17 17 18 19 20 20 19 20 19 17 18 16 18 17 17 17 17 16 17 17 16 15 14 12 11 11 12 12 12 12 11 10 10 11 11 10 10 8 9 7 8 8 8 8 8 8 6 7 6 6 6 6 6 6 6 6 6 7
14 16 16 17 17 18 19 19 19 19 18 17 15 13 14 16 19 18 16 17 18 18 18 17 17 15 14 13 13 13 14 13 12 13 11 11 11 11 11 10 10 9 9 6 8 8 9 9 9 9 9 9 8 8 8 8 7 6 6 6 6 6 6
14 15 17 18 18 18 18 18 18 17 15 13 13 15 18 17 16 17 18 17 17 17 17 18 16 15 14 13 13 15 14 14 13 12 11 12 11 11 11 10 9 9 7 9 9 9 9 10 8 8 10 8 10 9 9 8 8 7 6 7 7 7 6
16 18 18 18 18 17 17 17 17 17 19 19 20 20 19 17 17 18 18 17 16 17 18 18 17 16 14 13 13 14 13 13 12 12 13 13 12 11 10 9 10 8 10 10 9 9 9 9 9 9 9 9 9 9 9 9 8 7 7 8 8 8 6
12 12 14 15 15 15 15 14 13 12 14 15 15 14 17 17 17 17 17 17 17 18 18 17 15 15 14 14 14 15 14 13 12 13 13 12 12 12 11 10 9 9 10 11 8 9 9 9 10 9 9 10 10 10 9 9 9 8 8 9 8 8 8
13 14 14 15 15 16 13 11 13 15 17 17 17 17 17 17 17 18 18 17 17 17 17 16 14 15 15 15 15 14 14 14 13 13 14 13 11 12 11 10 9 9 10 9 9 9 9 9 9 9 9 10 11 11 10 10 10 9 8 8 7 8 7
12 13 15 16 16 14 15 16 17 16 16 16 17 17 17 17 17 17 17 18 17 16 15 15 14 15 15 15 15 14 15 14 13 14 14 14 13 12 12 11 11 11 9 9 10 10 8 10 8 10 11 11 11 11 10 10 9 10 10 8 7 8 8
13 14 15 17 17 16 15 13 16 18 18 18 18 17 16 17 17 17 16 17 16 16 16 15 15 14 15 15 15 14 15 15 15 14 14 14 14 12 12 12 11 11 11 10 10 10 9 9 10 10 11 12 11 11 10 10 10 10 10 9 9 9 9
14 14 14 14 14 15 16 18 18 18 18 18 17 16 15 15 16 17 17 17 16 15 15 13 14 15 15 15 15 15 16 15 15 15 15 13 13 13 13 13 12 12 11 11 11 10 11 10 10 10 10 11 11 11 9 10 10 10 10 10 10 10 9
13 16 17 16 16 16 18 18 17 18 17 17 17 17 17 15 15 13 13 13 14 15 16 15 15 16 16 15 16 16 15 14 13 13 13 13 12 12 12 12 12 12 11 11 11 10 10 10 10 11 11 11 11 11 10 10 11 10 10 10 11 10 9
15 17 18 18 18 18 18 19 18 18 18 17 18 18 17 15 15 16 17 16 16 16 15 15 16 16 15 16 16 15 14 13 12 12 12 12 12 12 13 12 12 12 12 12 12 11 10 10 11 10 11 12 11 10 9 10 9 12 16 14 11 10 9
16 17 17 17 16 18 18 18 17 16 16 17 18 19 18 17 17 17 17 15 16 16 15 16 15 16 16 16 15 13 12 12 12 12 13 13 12 12 12 12 11 11 12 12 11 11 11 10 11 11 11 12 11 11 10 10 10 15 15 16 17 12 10
14 14 15 16 17 16 17 16 15 16 18 18 18 18 17 15 15 15 16 16 17 16 15 15 15 16 15 15 13 13 14 13 13 13 13 12 13 13 12 11 12 12 12 12 12 11 10 11 12 12 11 10 11 11 11 11 13 15 16 17 17 15 12
11 12 14 16 17 17 17 17 18 19 20 18 18 18 18 17 16 17 17 17 15 13 15 16 16 15 14 14 14 15 14 13 14 14 13 14 13 13 12 13 13 13 13 13 12 11 12 13 12 12 12 12 13 12 12 12 14 16 17 17 17 18 14
5 7 10 14 17 18 18 15 15 17 19 20 20 21 18 17 18 15 12 12 12 15 14 15 14 14 15 14 14 14 14 14 14 14 14 13 13 13 13 13 14 13 12 12 11 12 12 13 14 13 13 13 13 12 11 12 14 16 17 17 18 17 15
5 7 9 9 10 12 13 16 16 15 13 13 13 11 12 11 8 10 11 13 14 14 14 14 14 14 14 14 14 14 14 14 14 14 14 14 13 13 13 14 13 14 13 11 12 12 14 14 13 13 13 13 12 12 12 11 15 16 17 18 18 17 14
6 7 10 10 12 11 12 13 14 16 16 12 12 13 14 13 12 14 13 13 14 13 14 14 14 14 13 14 14 15 14 14 14 14 13 13 13 13 14 14 14 14 12 12 12 11 10 10 11 13 14 13 12 11 14 12 15 16 17 17 17 16 10
5 6 8 6 7 7 7 7 8 8 8 10 12 13 13 12 12 12 12 12 12 13 13 13 14 14 14 14 14 14 14 14 15 14 14 14 14 14 14 14 14 13 11 12 12 11 11 12 11 12 12 12 13 14 14 13 14 17 18 17 17 12 8
7 3 5 9 7 9 8 8 9 9 11 11 11 11 10 11 12 12 13 13 12 13 13 14 15 14 14 14 14 14 14 14 15 15 14 13 15 15 15 14 13 13 12 12 12 12 12 11 11 12 12 13 13 13 12 12 13 17 18 18 17 15 11
8 7 4 5 12 12 11 11 12 12 12 12 12 10 11 12 13 12 13 12 13 14 14 15 15 14 14 14 14 14 14 14 14 14 14 14 15 15 15 14 14 13 12 11 11 12 11 11 11 11 10 10 12 15 15 13 13 17 17 18 18 16 10
10 10 9 8 6 9 11 11 12 12 13 14 14 13 14 14 14 14 13 13 13 14 15 15 15 15 14 13 12 13 13 12 14 14 14 15 15 13 14 13 11 10 10 11 11 10 10 10 9 12 10 10 11 11 12 13 13 13 18 18 19 20 13
11 10 11 10 8 7 9 8 10 11 11 11 12 12 14 14 14 14 12 12 12 14 15 14 11 10 11 11 12 12 13 12 13 14 14 14 14 14 13 11 12 11 11 11 10 11 10 11 10 10 11 10 11 11 12 12 12 13 17 18 20 21 18
13 13 13 12 12 10 10 11 11 10 9 6 9 10 11 12 12 11 10 11 13 12 8 8 10 10 10 11 12 12 12 13 12 12 12 12 11 10 11 11 11 11 12 10 10 12 12 11 10 10 10 10 11 11 12 12 16 11 14 18 19 20 21
13 13 13 13 13 11 10 11 11 11 9 7 8 8 9 11 11 9 9 10 8 6 7 8 9 10 10 10 11 11 11 11 12 11 10 10 12 12 12 11 11 11 10 11 11 11 12 12 10 10 10 10 9 9 10 10 10 15 13 16 20 20 20
14 13 13 12 12 10 10 12 10 11 10 9 9 8 9 12 11 10 10 8 5 6 7 7 8 9 10 10 10 11 10 11 12 12 11 12 11 12 12 11 11 11 10 10 10 10 11 9 9 9 10 10 9 9 9 9 9 11 16 14 19 19 21
14 13 11 12 11 10 10 11 11 11 12 10 10 9 9 10 13 11 10 5 4 5 7 8 8 9 10 10 11 11 11 11 11 12 12 12 12 12 11 11 11 10 9 9 10 10 10 9 9 10 10 10 10 9 8 9 8 7 11 16 16 19 19
15 14 14 12 12 11 9 9 10 11 12 11 10 9 8 7 9 12 7 4 3 3 5 7 8 8 8 8 9 10 10 11 12 12 12 12 11 12 12 12 12 11 10 10 10 10 10 10 9 9 9 9 9 9 9 8 7 7 6 7 10 12 16
13 12 12 12 10 9 10 9 10 10 10 10 8 7 7 8 7 5 5 7 4 2 3 6 7 7 7 8 8 7 8 10 9 9 9 10 9 10 10 10 10 10 10 10 10 9 9 9 9 8 7 9 9 9 8 8 7 6 5 5 5 6 9
12 11 11 10 10 9 8 8 8 8 8 8 6 6 6 6 6 4 3 6 5 4 4 5 5 6 7 8 7 7 8 9 9 9 8 9 9 9 8 9 8 9 10 10 10 10 9 8 9 9 9 8 8 8 8 7 6 5 6 7 7 6 5
11 9 9 11 9 7 7 5 6 6 7 6 4 4 5 5 5 4 6 6 5 4 6 5 4 4 4 5 5 6 7 8 8 8 7 5 5 6 4 1 4 7 7 5 6 10 10 10 9 9 9 8 8 8 8 6 6 10 10 10 11 10 8
11 11 11 9 7 7 7 6 6 6 6 5 5 5 5 6 5 4 4 4 4 4 6 4 4 4 3 3 4 4 5 6 6 6 6 7 7 6 5 8 6 5 1 3 4 5 2 4 9 9 8 8 6 4 8 9 10 5 10 9 11 11 12
9 11 11 10 10 11 8 6 6 6 6 5 5 5 5 5 5 5 4 3 3 4 5 5 5 4 3 3 3 4 4 4 4 4 5 5 7 8 7 5 8 13 10 6 4 5 5 1 2 3 9 10 6 0 4 4 10 13 13 12 12 11 10
7 5 10 10 9 10 10 9 8 7 6 5 5 6 6 6 6 6 5 3 1 3 5 5 5 4 2 2 4 4 5 5 6 6 7 7 7 8 7 7 6 6 12 12 9 10 10 8 5 2 7 10 12 9 1 2 5 11 11 11 11 10 11
Wind_Direction
200 198 198 196 193 195 197 195 193 192 192 191 190 188 187 188 188 184 187 186 189 190 190 188 189 189 192 196 199 199 198 195 194 197 195 196 192 186 184 184 185 190 191 198 203 203 207 194 197 198 194 199 202 199 188 185 189 189 189 192 194 198 206
199 201 201 198 200 201 200 194 191 192 193 193 191 189 189 188 186 187 188 187 189 190 188 189 189 192 193 197 197 196 196 196 196 197 196 193 189 190 187 185 187 190 194 199 196 201 190 200 198 199 198 197 205 198 191 189 191 190 189 188 195 203 203
194 197 197 197 201 202 198 191 192 193 193 192 190 189 191 189 187 186 184 185 189 191 188 189 190 192 194 196 194 197 196 195 196 197 195 196 195 192 188 186 190 191 195 189 191 192 191 192 198 203 201 202 202 198 197 192 192 192 192 187 195 203 203
194 195 196 197 202 201 193 192 193 193 194 192 191 191 190 189 187 186 185 185 186 188 189 191 190 192 193 194 195 195 195 196 197 198 200 198 196 189 182 189 191 188 186 200 195 190 191 191 193 200 203 208 208 201 196 202 194 192 191 187 198 201 207
198 196 195 197 203 200 191 193 192 192 195 195 193 190 189 187 185 186 188 187 187 188 189 188 189 192 194 193 194 194 194 193 196 199 200 198 193 186 191 194 194 197 203 191 186 190 191 189 192 195 203 208 208 199 203 201 202 193 192 192 200 210 216
197 193 194 198 201 197 193 195 193 193 193 191 190 188 186 184 185 188 188 186 189 190 187 186 189 189 191 192 191 193 192 195 195 196 197 195 188 191 198 199 196 199 193 197 187 195 192 195 195 195 199 201 205 205 203 202 205 196 198 193 206 201 212
195 194 196 200 199 197 196 196 195 194 193 191 185 181 181 184 188 189 186 188 187 186 187 190 191 188 191 186 192 190 192 193 194 197 197 195 193 196 200 198 197 197 200 173 193 190 194 199 200 199 202 203 206 207 209 210 206 201 199 202 209 209 205
194 195 200 200 198 197 198 197 194 191 186 178 176 181 185 187 185 186 189 189 187 187 188 188 188 190 190 189 190 192 192 194 194 195 193 195 195 198 199 198 197 196 181 192 197 190 198 201 201 200 201 203 210 210 213 213 213 200 195 205 211 214 208
197 198 199 200 198 198 198 196 191 184 180 181 183 185 185 182 184 187 188 187 188 188 190 188 188 188 187 188 190 194 194 191 192 191 194 196 197 199 196 195 196 186 191 198 196 196 201 202 201 201 201 207 210 211 213 214 213 204 201 210 212 215 211
206 203 206 204 201 200 198 192 181 175 180 184 183 181 182 185 185 184 186 188 186 191 190 187 186 185 185 187 191 191 189 192 192 192 194 197 200 200 198 194 192 188 196 199 195 196 203 202 202 200 202 208 212 212 215 213 214 209 208 213 210 215 218
206 206 203 200 198 197 188 173 173 182 184 184 184 185 184 182 183 184 186 186 188 191 187 186 183 183 185 187 189 189 191 193 191 193 195 199 200 201 196 194 191 193 197 195 197 200 198 203 200 202 204 210 213 213 214 216 213 213 212 214 214 216 217
215 206 201 199 199 190 181 182 184 183 183 184 185 184 182 182 183 184 184 187 186 184 184 185 182 183 182 186 188 190 191 192 192 195 196 198 199 200 198 196 197 196 197 194 199 199 200 201 198 204 209 214 216 214 216 215 214 215 216 211 210 216 219
212 209 205 200 194 190 185 181 185 186 185 184 184 184 182 181 181 182 183 183 183 184 182 180 179 180 183 186 189 188 192 192 194 195 197 198 200 199 198 199 198 196 198 196 199 200 201 199 202 208 212 217 216 216 214 214 216 218 218 217 215 217 219
212 214 209 201 194 184 182 187 187 186 185 182 183 182 180 181 182 181 180 182 181 178 178 179 180 181 184 185 189 191 194 195 195 196 197 198 198 199 199 200 200 201 201 198 202 204 205 202 204 209 213 218 217 218 213 214 217 218 218 219 218 218 221
204 207 205 198 193 186 186 187 186 186 183 183 179 178 177 178 180 178 179 179 178 177 181 178 179 182 185 186 190 194 194 194 196 197 197 196 197 199 200 202 202 201 201 201 205 208 208 207 209 211 216 219 218 217 212 214 218 217 216 217 220 220 224
209 202 199 195 191 189 189 189 185 184 181 178 178 179 175 176 178 178 178 179 179 181 179 172 181 183 185 189 194 194 192 192 192 194 193 194 196 199 201 202 202 201 203 206 208 208 207 209 212 214 215 218 219 216 213 217 220 217 212 210 216 218 222
210 198 193 193 190 187 188 187 185 179 178 179 180 180 178 178 180 179 179 177 178 179 177 177 180 183 185 193 193 189 188 188 193 191 194 197 198 199 201 202 200 202 205 207 206 207 207 207 212 214 216 218 218 216 216 220 222 215 206 210 212 213 218
203 193 186 188 188 188 187 183 176 176 180 183 183 181 179 178 176 174 179 178 179 179 173 176 178 184 188 189 184 186 188 191 190 192 196 194 200 199 200 200 201 205 206 205 206 207 206 211 214 216 217 219 219 219 220 223 223 212 207 207 209 210 217
205 196 186 184 186 187 185 181 180 180 183 181 181 181 183 177 174 181 180 177 177 165 171 178 180 182 185 185 187 189 189 188 191 194 195 197 198 198 197 200 204 206 206 207 207 205 208 212 212 215 217 220 222 223 222 227 218 211 209 208 207 209 212
220 216 200 190 187 185 184 182 182 184 182 182 184 185 179 175 181 179 169 161 157 170 174 175 179 181 185 186 188 188 188 190 193 195 198 197 197 197 199 201 205 206 206 207 205 208 212 213 214 215 216 219 222 225 227 227 220 208 209 209 207 205 203
197 186 194 197 193 189 182 180 180 180 179 182 177 167 162 171 148 127 146 159 167 173 173 177 178 181 184 188 189 188 190 192 194 197 197 198 197 198 202 203 206 207 206 205 206 207 212 213 213 216 217 220 220 225 229 229 220 211 208 209 206 204 198
191 174 184 186 186 184 175 177 177 177 181 169 158 166 170 167 156 155 163 166 168 171 174 175 179 185 186 189 189 191 191 190 194 197 198 198 197 199 203 205 206 207 205 207 211 213 214 216 216 218 219 219 219 223 231 231 217 213 211 208 206 196 195
300 187 161 164 165 173 168 161 154 146 132 147 162 164 168 157 157 157 155 162 167 168 171 175 183 188 188 190 190 191 191 191 194 197 198 196 197 200 204 206 207 209 205 208 210 210 211 215 213 217 218 216 217 222 229 232 218 211 211 208 199 186 198
1 16 137 136 128 130 132 130 125 133 140 146 158 159 152 155 154 154 159 164 164 167 175 180 190 189 187 191 191 192 191 193 194 197 198 195 198 202 206 207 208 208 203 204 208 210 212 212 217 216 216 217 219 218 224 230 221 210 211 205 193 189 196
8 28 46 126 140 138 138 141 141 139 138 142 147 155 152 153 152 154 163 166 169 174 178 187 191 188 190 194 192 191 191 193 195 198 197 196 201 203 205 206 206 207 202 206 210 215 214 215 217 218 218 216 220 221 222 230 226 211 209 201 193 194 208
15 31 46 55 75 121 128 129 127 137 148 158 162 155 155 152 157 164 168 174 171 176 186 191 193 192 192 190 190 191 192 193 196 199 197 200 203 204 207 207 208 204 199 206 209 214 214 213 215 218 219 215 217 220 221 227 230 215 205 199 195 195 201
28 39 48 49 60 79 99 106 125 140 150 156 153 155 156 159 163 170 170 168 174 187 192 192 188 184 188 189 190 192 194 195 197 199 201 202 203 203 206 204 206 205 201 204 206 212 216 214 215 218 223 218 218 221 222 223 227 222 198 199 195 197 197
28 39 45 52 54 64 86 88 91 93 87 109 144 149 154 155 159 159 158 166 185 191 179 170 179 184 187 188 192 194 195 196 197 199 202 203 201 200 206 207 206 205 203 204 205 209 214 214 215 218 223 224 223 223 227 224 220 223 203 196 196 197 198
23 27 35 41 45 43 66 81 77 76 81 82 105 125 131 130 131 136 146 162 170 146 145 158 167 176 183 190 195 196 196 195 193 196 199 201 198 199 205 204 203 205 201 203 204 207 212 213 211 214 221 225 225 225 227 227 222 213 212 196 196 197 198
19 22 30 38 45 41 45 69 68 71 66 70 79 96 112 118 119 123 123 133 157 149 148 153 156 164 177 190 195 196 197 193 194 197 199 199 196 200 204 202 202 203 201 201 202 204 210 212 210 211 217 222 226 224 227 226 226 209 208 200 195 198 198
20 20 21 29 34 33 42 56 62 63 58 51 61 70 84 103 111 107 106 143 152 144 145 156 161 167 182 188 193 195 197 196 197 197 198 198 194 197 201 204 198 202 203 199 202 204 207 210 205 209 213 218 223 227 224 226 223 222 203 204 196 197 199
10 13 19 24 26 27 37 46 54 60 63 53 46 58 60 70 97 105 121 137 127 144 146 147 146 168 186 190 192 195 192 196 202 200 199 197 196 198 199 199 197 200 200 197 202 203 204 207 205 209 211 215 222 226 227 220 223 223 203 193 198 199 202
3 8 13 17 15 24 30 39 48 50 56 57 39 53 58 69 59 75 119 114 112 99 134 130 149 169 178 188 192 192 192 197 201 199 200 199 198 200 201 202 201 200 199 197 201 201 204 206 205 209 205 215 218 224 226 222 212 207 196 180 179 193 193
352 354 2 8 12 21 31 38 45 52 53 50 31 42 61 65 73 81 81 91 93 91 108 117 147 159 177 186 181 185 190 197 196 191 197 198 197 199 200 202 202 200 199 197 196 196 201 199 204 205 204 208 210 216 222 221 203 193 195 195 189 187 173
344 347 354 6 358 11 32 33 45 52 60 49 24 43 55 56 57 52 60 61 70 83 83 90 117 146 163 170 176 187 188 186 187 187 182 139 78 43 29 322 234 205 196 206 202 200 197 202 205 204 209 208 209 206 218 211 203 221 206 201 192 181 170
343 344 351 356 354 4 13 26 40 43 48 30 9 28 39 42 33 32 38 57 70 85 84 84 79 98 128 150 179 185 178 174 178 169 145 130 131 114 77 59 74 24 347 145 7 9 314 193 201 201 195 204 204 207 201 211 221 157 166 184 184 194 194
360 341 345 348 354 358 356 5 21 32 34 21 14 32 34 35 21 20 20 26 56 86 97 101 99 104 122 139 174 188 171 157 145 130 121 124 139 139 133 117 58 48 47 41 40 44 46 52 256 236 194 187 179 214 15 155 145 162 171 161 162 159 153
12 357 333 345 351 348 350 356 1 6 1 1 20 33 33 26 11 355 349 340 344 94 94 94 104 106 139 151 154 153 154 146 142 137 141 150 155 155 150 134 112 67 39 43 57 59 58 42 28 199 195 184 155 145 32 71 133 136 133 131 127 127 125